Weather reports worldwide

Advertisment
Bangkok, Thailand (48455): temperature & dewpoint: 20.06.2018 00:00:00 - 26.06.2018 00:00:00 (ICT)Bangkok, Thailand (48455): wind speed: 20.06.2018 00:00:00 - 26.06.2018 00:00:00 (ICT)Bangkok, Thailand (48455): wind direction: 20.06.2018 00:00:00 - 26.06.2018 00:00:00 (ICT)Bangkok, Thailand (48455): reduced air pressure: 20.06.2018 00:00:00 - 26.06.2018 00:00:00 (ICT)Bangkok, Thailand (48455): visibility: 20.06.2018 00:00:00 - 26.06.2018 00:00:00 (ICT)
Date & Time tt [°C] td [°C] ff [km/h] ff [kn] dd ppp [hPa] vv [km]
26.06.2018 00:00:00 - - - - - - -
25.06.2018 23:00:00 - - - - - - -
25.06.2018 22:00:00 28,4 24,7 0 0 N 1007,5 10
25.06.2018 21:00:00 - - - - - - -
25.06.2018 20:00:00 - - - - - - -
25.06.2018 19:00:00 30,7 24,7 0 0 N 1006,1 10
25.06.2018 18:00:00 - - - - - - -
25.06.2018 17:00:00 - - - - - - -
25.06.2018 16:00:00 32,3 23,5 0 0 N 1004,3 10
25.06.2018 15:00:00 - - - - - - -
25.06.2018 14:00:00 - - - - - - -
25.06.2018 13:00:00 32,3 23,2 8 4 WNW 1005,8 10
25.06.2018 12:00:00 - - - - - - -
25.06.2018 11:00:00 - - - - - - -
25.06.2018 10:00:00 30,5 26,5 4 2 ESE 1008,2 10
25.06.2018 09:00:00 - - - - - - -
25.06.2018 08:00:00 - - - - - - -
25.06.2018 07:00:00 28,1 26,6 0 0 N 1007,6 10
25.06.2018 06:00:00 - - - - - - -
25.06.2018 05:00:00 - - - - - - -
25.06.2018 04:00:00 27,9 26,2 0 0 N 1006,7 10
25.06.2018 03:00:00 - - - - - - -
25.06.2018 02:00:00 - - - - - - -
25.06.2018 01:00:00 29,0 23,2 0 0 N 1007,4 10
25.06.2018 00:00:00 - - - - - - -
24.06.2018 23:00:00 - - - - - - -
24.06.2018 22:00:00 30,1 25,3 0 0 N 1007,6 10
24.06.2018 21:00:00 - - - - - - -
24.06.2018 20:00:00 - - - - - - -
24.06.2018 19:00:00 31,3 25,2 0 0 N 1005,8 10
24.06.2018 18:00:00 - - - - - - -
24.06.2018 17:00:00 - - - - - - -
24.06.2018 16:00:00 33,5 25,0 0 0 N 1005,4 10
24.06.2018 15:00:00 - - - - - - -
24.06.2018 14:00:00 - - - - - - -
24.06.2018 13:00:00 33,5 24,2 4 2 SE 1006,7 10
24.06.2018 12:00:00 - - - - - - -
24.06.2018 11:00:00 - - - - - - -
24.06.2018 10:00:00 38,7 32,5 0 0 N 1008,1 10
24.06.2018 09:00:00 - - - - - - -
24.06.2018 08:00:00 - - - - - - -
24.06.2018 07:00:00 28,9 25,8 2 1 ESE 1008,1 10
24.06.2018 06:00:00 - - - - - - -
24.06.2018 05:00:00 - - - - - - -
24.06.2018 04:00:00 28,5 24,9 0 0 N 1007,0 10
24.06.2018 03:00:00 - - - - - - -
24.06.2018 02:00:00 - - - - - - -
24.06.2018 01:00:00 29,8 25,1 0 0 N 1007,2 10
24.06.2018 00:00:00 - - - - - - -
23.06.2018 23:00:00 - - - - - - -
23.06.2018 22:00:00 30,5 25,6 0 0 N 1008,6 10
23.06.2018 21:00:00 - - - - - - -
23.06.2018 20:00:00 - - - - - - -
23.06.2018 19:00:00 31,0 26,8 0 0 N 1006,0 10
23.06.2018 18:00:00 - - - - - - -
23.06.2018 17:00:00 - - - - - - -
23.06.2018 16:00:00 34,3 25,5 4 2 ESE 1005,6 10
23.06.2018 15:00:00 - - - - - - -
23.06.2018 14:00:00 - - - - - - -
23.06.2018 13:00:00 34,1 28,4 0 0 N 1007,7 10
23.06.2018 12:00:00 - - - - - - -
23.06.2018 11:00:00 - - - - - - -
23.06.2018 10:00:00 32,5 27,1 0 0 N 1007,5 10
23.06.2018 09:00:00 - - - - - - -
23.06.2018 08:00:00 - - - - - - -
23.06.2018 07:00:00 27,5 24,9 0 0 N 1007,2 10
23.06.2018 06:00:00 - - - - - - -
23.06.2018 05:00:00 - - - - - - -
23.06.2018 04:00:00 28,5 24,9 0 0 N 1007,0 10
23.06.2018 03:00:00 - - - - - - -
23.06.2018 02:00:00 - - - - - - -
23.06.2018 01:00:00 29,5 25,2 0 0 N 1007,2 10
23.06.2018 00:00:00 - - - - - - -
22.06.2018 23:00:00 - - - - - - -
22.06.2018 22:00:00 29,8 25,4 0 0 N 1008,7 10
22.06.2018 21:00:00 - - - - - - -
22.06.2018 20:00:00 - - - - - - -
22.06.2018 19:00:00 31,3 25,5 2 1 ESE 1005,6 10
22.06.2018 18:00:00 - - - - - - -
22.06.2018 17:00:00 - - - - - - -
22.06.2018 16:00:00 33,5 25,0 4 2 NNE 1006,4 10
22.06.2018 15:00:00 - - - - - - -
22.06.2018 14:00:00 - - - - - - -
22.06.2018 13:00:00 33,0 25,1 0 0 N 1007,5 10
22.06.2018 12:00:00 - - - - - - -
22.06.2018 11:00:00 - - - - - - -
22.06.2018 10:00:00 32,0 24,5 0 0 N 1008,8 10
22.06.2018 09:00:00 - - - - - - -
22.06.2018 08:00:00 - - - - - - -
22.06.2018 07:00:00 28,0 25,9 0 0 N 1008,6 10
22.06.2018 06:00:00 - - - - - - -
22.06.2018 05:00:00 - - - - - - -
22.06.2018 04:00:00 28,5 26,1 0 0 N 1007,2 10
22.06.2018 03:00:00 - - - - - - -
22.06.2018 02:00:00 - - - - - - -
22.06.2018 01:00:00 29,0 25,5 0 0 N 1008,2 10
22.06.2018 00:00:00 - - - - - - -
21.06.2018 23:00:00 - - - - - - -
21.06.2018 22:00:00 30,5 24,8 0 0 N 1009,7 10
21.06.2018 21:00:00 - - - - - - -
21.06.2018 20:00:00 - - - - - - -
21.06.2018 19:00:00 30,0 25,0 0 0 N 1007,3 10
21.06.2018 18:00:00 - - - - - - -
21.06.2018 17:00:00 - - - - - - -
21.06.2018 16:00:00 32,3 25,2 4 2 ESE 1006,8 10
21.06.2018 15:00:00 - - - - - - -
21.06.2018 14:00:00 - - - - - - -
21.06.2018 13:00:00 32,0 25,7 4 2 E 1008,9 10
21.06.2018 12:00:00 - - - - - - -
21.06.2018 11:00:00 - - - - - - -
21.06.2018 10:00:00 31,1 24,8 0 0 N 1009,3 10
21.06.2018 09:00:00 - - - - - - -
21.06.2018 08:00:00 - - - - - - -
21.06.2018 07:00:00 29,0 26,3 0 0 N 1008,2 10
21.06.2018 06:00:00 - - - - - - -
21.06.2018 05:00:00 - - - - - - -
21.06.2018 04:00:00 28,6 25,6 0 0 N 1007,1 10
21.06.2018 03:00:00 - - - - - - -
21.06.2018 02:00:00 - - - - - - -
21.06.2018 01:00:00 28,7 24,8 0 0 N 1008,7 10
21.06.2018 00:00:00 - - - - - - -
20.06.2018 23:00:00 - - - - - - -
20.06.2018 22:00:00 30,0 25,0 0 0 N 1009,4 10
20.06.2018 21:00:00 - - - - - - -
20.06.2018 20:00:00 - - - - - - -
20.06.2018 19:00:00 30,8 24,7 0 0 N 1007,0 10
20.06.2018 18:00:00 - - - - - - -
20.06.2018 17:00:00 - - - - - - -
20.06.2018 16:00:00 31,7 25,7 4 2 ESE 1006,3 10
20.06.2018 15:00:00 - - - - - - -
20.06.2018 14:00:00 - - - - - - -
20.06.2018 13:00:00 32,5 24,4 0 0 N 1006,3 10
20.06.2018 12:00:00 - - - - - - -
20.06.2018 11:00:00 - - - - - - -
20.06.2018 10:00:00 31,7 24,3 0 0 N 1008,0 10
20.06.2018 09:00:00 - - - - - - -
20.06.2018 08:00:00 - - - - - - -
20.06.2018 07:00:00 28,5 25,7 0 0 N 1007,0 10
20.06.2018 06:00:00 - - - - - - -
20.06.2018 05:00:00 - - - - - - -
20.06.2018 04:00:00 28,6 25,8 0 0 N 1005,3 10
20.06.2018 03:00:00 - - - - - - -
20.06.2018 02:00:00 - - - - - - -
20.06.2018 01:00:00 29,0 25,5 0 0 N 1006,1 10
20.06.2018 00:00:00 - - - - - - -

tt = temperature
td = dewpoint
ff = wind speed
dd = wind direction
ppp = reduced air pressure
vv = visibility

Next stations